Wind_Speed
31 31 30 30 29 29 30 30 32 31 31 31 33 34 34 33 33 34 35 35 36 35 34 34 35 35 35 35 36 36 37 39 40 41 43 45 46 47 48 49 51 52 53 52
32 31 31 30 29 29 30 30 32 33 32 33 33 33 33 33 32 33 34 35 35 35 35 35 35 36 36 36 37 37 38 38 39 41 42 44 45 46 47 48 50 52 53 53
33 32 33 32 30 30 31 31 33 33 33 33 33 34 33 33 33 33 34 35 35 35 35 35 35 36 37 37 38 39 39 39 40 41 42 43 44 45 45 47 48 50 52 53
33 33 33 31 30 31 32 32 33 33 34 34 34 34 34 34 34 33 34 34 34 35 35 35 35 36 36 37 37 37 39 40 40 41 41 42 43 43 44 45 45 47 49 51
34 35 34 31 30 31 31 31 32 33 34 33 34 34 34 34 34 34 34 34 34 34 34 35 36 36 37 36 36 37 38 39 39 40 40 41 41 42 42 43 45 45 47 48
35 36 35 33 32 32 33 33 33 34 35 35 34 35 33 33 34 34 34 34 33 34 34 35 36 37 36 36 37 37 38 38 39 39 39 40 40 41 42 42 43 44 45 46
36 37 36 35 35 35 36 36 36 36 36 37 36 35 34 33 34 34 35 35 34 34 34 35 36 37 37 37 38 38 38 38 38 38 39 39 40 41 42 42 43 43 44 44
38 38 37 37 36 36 37 37 38 37 37 37 37 36 35 34 34 35 35 35 35 35 35 35 36 36 37 38 38 38 39 39 39 39 39 39 40 40 41 41 42 42 42 42
38 38 38 37 37 37 38 38 38 37 37 37 36 36 35 35 35 35 35 34 34 35 35 35 36 36 36 37 38 38 38 38 39 39 39 39 39 39 40 41 41 41 41 41
38 37 37 37 37 36 37 37 37 37 37 36 36 35 35 36 35 35 35 35 35 35 35 35 35 35 35 35 36 36 36 37 37 38 38 38 38 38 39 40 40 40 40 40
38 37 38 37 37 36 36 35 35 35 36 36 35 35 36 36 36 35 35 35 35 35 35 35 35 35 34 34 33 34 34 35 35 35 36 35 36 36 36 37 39 39 40 41
37 37 38 37 37 37 36 34 34 35 35 35 35 35 35 36 35 35 35 35 35 36 36 35 35 34 33 33 32 32 32 33 33 33 34 34 34 35 35 35 37 38 39 40
37 37 37 37 37 36 35 34 34 35 35 34 34 34 34 35 35 35 35 35 36 36 36 34 34 33 32 32 31 31 31 32 32 32 33 33 34 34 34 35 35 37 38 39
36 36 36 36 36 36 35 35 35 35 34 33 33 33 34 34 34 35 35 35 35 35 34 33 33 32 31 31 31 31 31 32 31 31 31 32 33 33 34 35 35 35 36 37
35 35 36 35 36 35 35 34 34 34 33 33 34 33 33 34 34 35 35 35 35 34 33 32 32 31 31 31 31 31 31 31 30 31 31 31 31 32 32 33 33 34 35 36
33 34 34 35 34 34 34 33 33 33 33 33 33 32 33 33 34 35 34 33 32 32 31 31 31 31 31 31 30 30 30 30 30 29 29 30 30 30 30 30 31 31 32 33
32 32 32 32 32 32 31 31 32 32 32 32 32 32 32 32 33 33 32 32 31 31 31 31 30 30 30 30 29 28 28 28 28 28 28 28 28 29 29 29 29 29 30 31
31 31 31 31 30 29 30 30 31 32 32 32 32 32 32 32 32 31 31 31 31 31 31 30 29 29 29 28 27 26 26 26 26 26 26 26 27 27 27 27 27 27 28 28
30 30 30 30 30 30 30 30 31 31 32 32 32 33 32 32 31 31 31 30 30 30 29 29 29 28 27 26 25 24 23 24 24 24 24 24 25 25 25 26 26 26 26 27
29 30 30 30 30 30 30 30 31 31 31 31 32 32 32 31 31 31 31 30 30 29 29 28 27 26 25 24 23 23 22 22 22 23 23 23 23 23 24 24 24 24 25 25
31 31 30 29 29 30 30 30 30 30 31 31 31 31 30 30 30 30 30 30 29 29 28 27 26 25 24 23 22 22 21 21 22 22 22 22 22 22 22 22 22 23 23 24
31 30 29 29 30 30 30 30 30 30 30 30 29 29 28 29 29 29 29 29 28 28 27 26 25 24 23 23 22 21 21 22 22 22 22 22 21 21 21 21 22 22 22 23
30 29 29 29 29 29 30 30 29 28 28 28 28 28 28 28 28 28 28 28 28 27 27 26 25 24 23 22 22 22 22 23 23 23 23 22 22 21 21 21 22 22 22 23
29 29 28 28 27 28 28 28 27 27 27 27 27 27 27 27 27 27 27 27 27 27 27 25 24 23 23 22 23 23 23 23 23 23 23 22 22 21 21 22 22 22 23 23
29 28 28 27 27 27 27 26 26 26 26 26 26 26 26 26 26 27 27 27 26 26 25 25 24 23 23 22 23 23 22 23 23 22 22 22 21 22 22 22 22 22 22 21
27 26 26 27 27 27 26 25 25 25 25 25 25 25 25 26 26 26 26 26 26 25 24 23 22 22 22 21 21 21 21 21 21 21 21 21 21 21 21 21 21 21 21 20
26 25 26 26 26 26 25 24 24 24 24 24 24 25 25 26 26 26 26 26 25 24 23 22 21 21 21 20 20 20 20 21 21 21 21 21 21 21 21 20 20 20 19 19
Wind_Direction
301 301 300 298 297 296 295 295 295 296 295 296 294 294 292 290 288 286 285 284 283 283 282 281 278 277 276 273 272 270 269 267 265 263 262 261 260 260 259 258 257 256 256 256
300 299 298 298 298 296 295 295 295 295 294 295 296 295 293 292 288 286 285 284 284 284 283 282 279 278 277 276 274 273 272 270 267 264 263 262 261 261 260 259 258 257 256 257
301 301 299 299 298 297 296 297 296 296 295 295 297 297 294 292 290 287 285 284 283 283 283 282 280 279 278 277 275 273 272 271 269 267 265 263 262 261 260 260 259 258 258 258
303 303 303 303 300 298 297 298 298 298 296 295 296 297 296 293 291 289 286 285 283 283 282 282 281 280 279 278 276 275 273 272 270 269 267 264 263 262 262 261 260 260 259 258
303 303 303 303 302 301 300 300 299 299 299 297 297 297 295 293 290 288 287 286 285 284 283 282 282 281 280 278 277 277 276 275 273 270 268 265 263 262 262 261 261 261 261 260
301 303 304 304 303 300 299 300 301 300 299 299 299 298 295 293 291 288 288 289 288 286 285 283 283 282 281 279 278 278 278 276 273 271 268 266 264 263 262 262 263 262 262 260
300 300 301 303 302 300 298 300 300 300 299 298 298 299 298 296 293 291 290 289 289 288 287 286 285 283 282 280 279 278 278 276 273 271 269 267 266 264 263 263 262 262 261 260
298 298 300 300 298 297 298 298 299 299 299 297 297 297 296 296 296 295 292 291 289 289 288 288 286 284 282 280 279 278 277 276 274 272 270 268 267 265 264 264 263 262 261 260
297 298 298 297 296 296 297 297 298 298 297 296 296 296 295 295 295 296 295 293 291 290 289 288 287 284 282 280 279 279 278 275 273 272 271 270 268 266 265 264 263 262 261 261
295 296 296 295 295 295 296 297 296 296 297 296 294 295 295 295 296 296 296 295 293 291 290 289 288 286 283 282 281 280 278 275 273 271 270 269 268 267 265 263 262 262 263 263
294 295 295 295 295 296 297 297 297 297 297 295 293 294 294 295 296 296 295 294 293 291 290 289 288 287 284 283 283 282 279 276 274 273 271 269 268 267 265 263 263 263 263 264
294 294 295 295 294 294 296 298 298 298 297 296 295 294 294 295 296 297 296 295 294 293 291 290 289 287 285 284 284 284 281 277 275 274 273 270 268 267 266 266 265 265 264 264
292 292 292 292 292 292 294 296 297 298 296 295 294 294 295 295 296 297 298 297 296 295 293 291 289 287 285 284 285 284 282 280 277 275 273 271 269 269 269 268 268 267 266 265
292 292 292 292 291 291 292 294 295 297 296 295 294 294 295 295 296 296 297 297 297 296 294 292 290 287 285 285 285 285 283 281 279 277 275 273 272 272 272 271 270 269 269 268
291 291 292 292 292 291 292 293 294 295 295 295 295 295 295 295 296 297 297 297 296 296 295 292 289 288 287 287 287 286 285 283 280 278 276 275 274 274 274 274 273 271 270 270
291 291 292 293 293 292 292 292 293 294 294 294 295 295 296 297 298 298 298 298 296 296 295 293 291 289 289 289 289 288 287 284 281 279 276 276 275 275 275 275 275 274 273 271
292 292 293 293 293 292 292 292 292 292 293 293 295 296 297 298 299 299 299 298 297 297 296 295 293 292 290 290 289 289 287 284 283 281 279 277 276 275 275 275 276 275 274 273
294 294 294 294 294 293 293 293 293 292 292 294 296 297 298 298 299 300 300 300 299 298 297 296 295 293 291 290 289 289 287 285 284 283 282 280 278 276 276 275 275 275 274 273
295 294 294 294 294 294 294 294 294 294 294 295 297 298 298 298 298 299 300 300 299 298 297 297 295 293 292 290 289 288 287 286 285 285 285 283 281 279 278 277 276 275 274 274
294 294 294 294 294 293 294 295 295 296 297 298 298 299 298 298 299 299 299 300 299 299 297 296 295 293 291 289 287 287 287 286 286 286 286 286 284 281 280 278 277 276 276 275
295 294 293 293 293 293 294 295 297 298 299 300 300 300 299 299 300 300 300 299 299 298 297 296 295 293 290 288 286 286 286 286 286 286 286 286 286 284 282 280 278 277 277 275
295 295 294 294 293 293 294 296 298 299 300 300 301 301 301 302 302 301 301 300 299 299 298 297 294 292 289 287 286 285 286 287 288 288 287 286 286 285 284 282 280 279 278 276
294 294 294 294 294 293 295 297 298 299 300 301 301 302 302 302 303 302 302 302 300 299 299 297 294 290 288 286 285 284 286 287 289 289 287 286 286 285 284 284 283 281 280 278
295 293 294 295 295 296 297 297 298 298 299 300 300 300 301 303 304 305 305 304 302 300 299 296 292 289 287 285 285 285 285 286 288 289 287 286 285 285 285 285 285 283 282 280
294 294 293 296 298 299 299 299 299 298 299 300 300 301 302 304 305 306 306 306 305 303 300 297 293 290 289 289 287 286 286 286 287 288 287 286 285 284 284 284 284 283 282 280
295 295 295 297 299 299 299 299 300 301 301 300 300 302 303 305 306 307 308 307 306 305 303 299 295 292 290 289 288 288 287 286 287 288 288 286 285 285 284 283 282 281 280 278
296 296 296 297 299 299 299 300 301 302 302 301 302 303 304 306 307 307 307 307 307 305 303 301 297 293 292 289 288 288 289 289 288 287 287 286 286 286 284 282 281 280 278 277
Height
5617 5614 5610 5607 5605 5601 5597 5594 5590 5588 5584 5582 5578 5575 5572 5569 5566 5562 5560 5557 5555 5553 5551 5549 5548 5547 5545 5544 5543 5542 5541 5541 5541 5541 5541 5541 5542 5543 5544 5546 5547 5549 5550 5552
5609 5606 5602 5599 5596 5592 5589 5585 5582 5579 5576 5573 5569 5565 5563 5560 5556 5553 5550 5548 5545 5543 5541 5539 5538 5536 5535 5534 5532 5531 5530 5529 5528 5528 5528 5528 5528 5529 5530 5531 5532 5534 5535 5537
5600 5597 5593 5591 5588 5584 5581 5577 5574 5570 5568 5563 5560 5556 5553 5550 5547 5544 5540 5538 5535 5533 5531 5529 5527 5526 5524 5523 5521 5520 5518 5517 5516 5515 5515 5515 5515 5515 5516 5517 5518 5519 5521 5522
5590 5588 5584 5585 5579 5575 5572 5569 5564 5560 5557 5554 5550 5547 5544 5540 5536 5533 5531 5528 5526 5523 5521 5519 5516 5515 5513 5511 5509 5508 5506 5505 5504 5503 5502 5502 5501 5502 5502 5504 5505 5505 5506 5507
5581 5577 5574 5574 5571 5566 5562 5560 5556 5551 5548 5544 5540 5537 5534 5530 5526 5523 5521 5518 5516 5513 5510 5508 5506 5504 5502 5500 5498 5496 5495 5493 5491 5490 5489 5489 5489 5489 5490 5490 5491 5492 5492 5493
5572 5567 5564 5566 5561 5556 5553 5550 5547 5542 5538 5535 5530 5527 5526 5521 5517 5514 5511 5508 5505 5503 5500 5497 5495 5492 5490 5489 5487 5485 5483 5481 5480 5478 5478 5477 5477 5477 5477 5478 5478 5479 5479 5479
5563 5557 5555 5555 5551 5546 5544 5542 5537 5532 5528 5524 5521 5517 5514 5510 5507 5504 5501 5498 5495 5492 5490 5487 5484 5481 5479 5477 5475 5474 5472 5470 5468 5467 5466 5466 5465 5465 5465 5465 5466 5466 5466 5466
5554 5549 5548 5544 5540 5537 5534 5530 5526 5521 5518 5514 5511 5507 5504 5500 5497 5494 5491 5488 5485 5482 5479 5476 5473 5471 5468 5466 5464 5462 5460 5458 5457 5456 5455 5454 5454 5453 5453 5453 5453 5453 5453 5454
5544 5542 5538 5533 5529 5526 5522 5519 5515 5511 5507 5503 5500 5497 5494 5491 5487 5484 5480 5477 5474 5471 5468 5465 5462 5459 5457 5455 5452 5450 5448 5446 5445 5444 5443 5442 5442 5441 5441 5440 5441 5441 5441 5441
5532 5530 5527 5522 5518 5515 5511 5507 5503 5499 5496 5492 5489 5486 5483 5480 5477 5474 5470 5466 5463 5460 5457 5454 5451 5448 5445 5443 5441 5439 5437 5435 5433 5432 5431 5430 5429 5428 5428 5428 5428 5428 5428 5429
5521 5519 5515 5511 5507 5504 5500 5496 5492 5489 5485 5482 5479 5476 5473 5470 5467 5463 5460 5456 5452 5449 5446 5443 5440 5437 5434 5432 5430 5427 5425 5423 5422 5420 5419 5418 5417 5416 5416 5416 5415 5416 5416 5416
5511 5508 5503 5500 5496 5493 5489 5485 5482 5478 5475 5471 5468 5465 5462 5459 5456 5452 5449 5445 5442 5438 5435 5432 5429 5426 5423 5421 5419 5416 5414 5412 5411 5409 5408 5407 5406 5405 5404 5404 5403 5403 5403 5403
5498 5495 5491 5488 5485 5482 5478 5475 5472 5468 5465 5461 5458 5455 5452 5448 5445 5442 5438 5434 5431 5427 5424 5421 5418 5415 5412 5410 5408 5406 5403 5401 5400 5398 5397 5395 5395 5394 5393 5392 5391 5391 5390 5390
5487 5483 5480 5477 5474 5471 5468 5465 5462 5458 5455 5451 5448 5444 5441 5438 5434 5431 5428 5424 5420 5416 5413 5410 5407 5404 5402 5400 5397 5395 5393 5391 5389 5387 5386 5384 5383 5382 5381 5381 5380 5379 5378 5377
5476 5473 5469 5466 5463 5460 5457 5454 5452 5449 5445 5442 5438 5434 5431 5427 5424 5421 5417 5413 5409 5406 5402 5399 5397 5394 5392 5389 5387 5384 5382 5380 5378 5377 5375 5374 5372 5371 5370 5369 5368 5367 5367 5366
5466 5462 5459 5456 5453 5450 5447 5445 5442 5439 5436 5432 5429 5425 5421 5418 5414 5410 5406 5403 5399 5396 5392 5389 5387 5384 5382 5379 5377 5374 5372 5370 5368 5366 5364 5363 5361 5360 5359 5358 5357 5356 5355 5355
5455 5452 5450 5447 5444 5441 5438 5435 5432 5429 5426 5423 5419 5416 5412 5408 5405 5401 5397 5393 5389 5386 5383 5380 5377 5375 5372 5369 5367 5364 5362 5360 5358 5356 5354 5353 5351 5350 5349 5348 5347 5346 5345 5344
5446 5443 5440 5437 5434 5431 5429 5426 5422 5419 5416 5413 5410 5406 5403 5399 5395 5392 5388 5384 5381 5377 5374 5371 5368 5366 5363 5360 5358 5355 5353 5351 5349 5347 5346 5344 5342 5341 5340 5338 5337 5336 5335 5334
5436 5434 5431 5428 5425 5423 5420 5417 5413 5410 5407 5404 5400 5397 5393 5389 5386 5383 5379 5375 5372 5369 5366 5362 5360 5357 5354 5352 5349 5347 5345 5343 5341 5339 5338 5336 5334 5332 5331 5330 5328 5327 5326 5326
5428 5425 5422 5419 5417 5414 5411 5408 5405 5401 5398 5394 5391 5387 5384 5380 5377 5374 5370 5367 5364 5361 5357 5354 5351 5349 5346 5344 5341 5339 5337 5336 5334 5332 5330 5328 5326 5324 5323 5322 5320 5319 5318 5317
5419 5416 5413 5410 5407 5405 5402 5399 5396 5392 5389 5385 5382 5378 5375 5371 5368 5365 5361 5359 5356 5352 5349 5346 5343 5341 5338 5336 5334 5332 5331 5329 5327 5325 5323 5321 5319 5317 5316 5314 5313 5312 5311 5309
5408 5406 5403 5401 5398 5396 5393 5390 5387 5383 5380 5376 5373 5369 5366 5363 5359 5356 5353 5350 5347 5344 5340 5338 5335 5333 5331 5329 5327 5325 5323 5322 5320 5318 5316 5314 5312 5310 5309 5307 5306 5304 5303 5302
5399 5396 5394 5391 5389 5386 5383 5380 5377 5374 5371 5368 5364 5361 5358 5354 5351 5348 5345 5342 5338 5335 5332 5330 5327 5325 5323 5321 5320 5318 5316 5315 5313 5311 5309 5307 5305 5303 5302 5300 5299 5297 5296 5295
5389 5387 5384 5382 5379 5377 5374 5371 5368 5365 5362 5359 5356 5353 5349 5346 5343 5340 5337 5333 5330 5327 5324 5322 5320 5318 5316 5314 5312 5311 5309 5307 5306 5304 5301 5299 5298 5296 5295 5293 5292 5290 5289 5287
5380 5378 5375 5373 5371 5368 5365 5362 5359 5356 5354 5351 5348 5345 5342 5338 5335 5332 5329 5325 5322 5319 5316 5314 5312 5310 5308 5307 5305 5303 5301 5300 5298 5296 5294 5292 5291 5289 5288 5286 5285 5283 5282 5281
5371 5369 5367 5365 5362 5359 5356 5354 5351 5348 5345 5343 5340 5337 5334 5331 5328 5324 5321 5318 5315 5312 5309 5307 5304 5303 5301 5299 5297 5296 5294 5293 5291 5289 5288 5286 5284 5282 5281 5279 5278 5276 5275 5274
5363 5361 5358 5356 5353 5351 5348 5346 5343 5340 5337 5335 5332 5329 5326 5323 5320 5317 5314 5311 5308 5305 5302 5300 5297 5295 5294 5292 5290 5289 5287 5286 5284 5282 5281 5279 5277 5275 5274 5272 5271 5270 5268 5267